Regional Weather Roundup
Issued by NWS

Home | Current Version | Previous Version | Graphics & Text | Print | Product List | Glossary On
Versions: 1 2 3 4 5 6 7 8 9 10 11 12 13 14 15 16 17 18 19 20 21 22 23 24 25 26 27 28 29 30 31 32 33 34 35 36 37 38 39 40 41 42 43 44 45 46 47 48 49 50
000
ASUS45 KBOU 282007
RWRCO

WEATHER ROUNDUP FOR COLORADO
NATIONAL WEATHER SERVICE DENVER/BOULDER CO
100 PM MST SAT FEB 28 2015

NOTE: "FAIR" INDICATES FEW OR NO CLOUDS BELOW 12000 FEET WITH NO
SIGNIFICANT WEATHER AND/OR OBSTRUCTIONS TO VISIBILITY.

COZ001>005-013-030-031-282100-
...NORTHWEST COLORADO...

CITY           SKY/WX    TMP DP  RH WIND       PRES   REMARKS
CRAIG          PTSUNNY   40  14  34 E12       29.74F
HAYDEN         PTSUNNY   34  14  44 SE5       29.74F WCI  30
MEEKER         PTSUNNY   36  15  42 CALM      29.72F
MOUNT WERNER   NOT AVBL
STEAMBOAT SPGS PTSUNNY   29  10  44 CALM      29.74F
WALDEN         SUNNY     25   9  50 CALM      29.75F
$$

COZ006>008-011-282100-
...WEST CENTRAL VALLEYS...

CITY           SKY/WX    TMP DP  RH WIND       PRES   REMARKS
GRAND JUNCTION PTSUNNY   38  18  44 SE7       29.75F
MONTROSE       LGT SNOW  29  24  82 CALM      29.79F
EAGLE          PTSUNNY   32  16  51 CALM      29.78F
RIFLE          PTSUNNY   37  16  42 CALM      29.74F
DELTA          CLOUDY    37  25  61 S5        29.78F
NUCLA          PTSUNNY   36  28  75 CALM      29.79F
$$

COZ017>023-064>068-282100-
...SOUTHWEST COLORADO...

CITY           SKY/WX    TMP DP  RH WIND       PRES   REMARKS
DURANGO        LGT SNOW  31  27  85 NE6       29.82F FOG     WCI  25
CORTEZ         LGT SNOW  36  32  85 CALM      29.79F FOG
PAGOSA SPRINGS SNOW      31  27  88 CALM      29.82F VSB 1/2
TELLURIDE      LGT SNOW  27  24  87 S3        29.77S VSB 1
WOLF CREEK PAS SNOW      14  14 100 SW20G28   29.80F VSB 1/2 WCI  -3
$$

COZ009-010-012-014-032>034-037-058>063-282100-
...CENTRAL COLORADO...

CITY           SKY/WX    TMP DP  RH WIND       PRES   REMARKS
ASPEN          PTSUNNY   30  13  49 N7        29.70F WCI  23
BUENA VISTA    CLOUDY    27  15  61 W5        29.79F WCI  21
COPPER MTN     PTSUNNY   21   7  53 S21       29.71F WCI   6
BERTHOUD PASS  PTSUNNY    9   3  78 SE10      29.73F WCI  -6
COTTONWOOD PAS LGT SNOW  25  18  74 CALM      29.76F
GUNNISON       PTSUNNY   27  12  54 NE6       29.80F WCI  20
KREMMLING      CLOUDY    30  10  43 CALM      29.78F
LEADVILLE      MOSUNNY   20  11  68 S6        29.72F WCI  12
SALIDA         CLOUDY    34  17  48 CALM      29.86F
SUNLIGHT       LGT SNOW  23  18  80 CALM        N/A
WILKERSON PASS MOSUNNY   21  12  68 MISG      29.79R
$$

COZ069>075-282100-
...SAN LUIS VALLEY/SANGRE DE CRISTO MOUNTAINS...

CITY           SKY/WX    TMP DP  RH WIND       PRES   REMARKS
ALAMOSA        LGT SNOW  25  19  78 CALM      29.84F VSB 1
LA VETA PASS   SNOW      23  19  86 SW5       29.80S VSB 1/2 WCI  17
SAGUACHE       CLOUDY    27  19  74 S5        29.85F WCI  21
$$

COZ035-036-038>040-282100-
...NORTHERN COLORADO FRONT RANGE...

CITY           SKY/WX    TMP DP  RH WIND       PRES   REMARKS
DENVER INTL AP PTSUNNY   19   9  65 N6        29.94F WCI  11
DMNS CITY PARK   N/A     25  10  52 N2G12     29.94F
AURORA         PTSUNNY   18   9  66 NW6       29.94F WCI  10
FRONT RANGE AP NOT AVBL
ERIE MUNI ARPT PTSUNNY   22  11  61 N6        29.96F WCI  15
BOULDER MUN AP PTSUNNY   25  12  58 NW6       29.95F WCI  18
CENTENNIAL     PTSUNNY   21  10  62 N8        29.91F WCI  11
BROOMFIELD     NOT AVBL
FORT COLLINS   SUNNY     23  12  63 E6        29.98F WCI  16
LONGMONT       SUNNY     34  12  40 N6        29.98F WCI  29
$$

COZ041-046-047-076>085-087-088-282100-
...PIKES PEAK/PALMER DIVIDE AND SOUTHERN FOOTHILLS...

CITY           SKY/WX    TMP DP  RH WIND       PRES   REMARKS
COLO. SPRINGS  MOSUNNY   19  13  77 S8        29.89S WCI   9
A. F. ACADEMY  SUNNY     26  11  54 N8        29.86S WCI  17
ELLICOTT       NOT AVBL
FALCON         SUNNY     28  13  53 S5        29.86S WCI  23
FORT CARSON    SUNNY     19  10  69 SE5       29.89F WCI  12
LIMON          SUNNY     18  11  74 N14       29.93F WCI   4
MONUMENT HILL  SUNNY     21  10  63 NW9       29.85F WCI  11
TRINIDAD       CLOUDY    20  13  74 CALM      29.91F
$$

COZ042>045-048>051-090-091-282100-
...NORTHEAST COLORADO...

CITY           SKY/WX    TMP DP  RH WIND       PRES   REMARKS
GREELEY ARPT   PTSUNNY   27  12  54 CALM      29.98F
AKRON          MOSUNNY   20  13  74 SE6       29.99S WCI  12
BURLINGTON     CLOUDY    17  10  74 SE6       30.04F HAZE    WCI   9
WRAY           CLOUDY    23  13  64 CALM      30.07F
STERLING       CLOUDY    27  14  59 NW3       30.03F
HOLYOKE        NOT AVBL
FORT MORGAN    MOSUNNY   24  11  59 CALM      30.01F
$$

COZ086-089-092>099-282100-
...SOUTHEAST COLORADO...

CITY           SKY/WX    TMP DP  RH WIND       PRES   REMARKS
PUEBLO         SUNNY     19   9  65 E6        29.97F WCI  11
LA JUNTA       PTSUNNY   22  13  68 NE7       30.02F WCI  13
LAMAR          CLOUDY    24  15  68 S6        30.03S WCI  17
SPRINGFIELD      N/A     22  15  75 CALM      29.99R
$$



USA.gov is the U.S. government's official web portal to all federal, state and local government web resources and services.